Location: Hains Lake
(37.8540°N, 99.8578°W)
Time: 12:48:28
(UTC+00:00)

Transit 2A - Pass Details

Date: 19 April 2021
Orbit: 602 x 957 km, 66.7° (Epoch: 13 May)

Event Time Altitude Azimuth Distance (km) Brightness Sun altitude
Rises 00:24:23 0° 311° (NW) 2,909 10.0 9.6°
Reaches altitude 10° 00:27:22 10° 290° (WNW) 2,040 10.4 9.0°
Maximum altitude 00:30:08 16° 252° (WSW) 1,718 9.2 8.5°
Drops below altitude 10° 00:33:01 10° 215° (SW) 2,139 8.7 7.9°
Sets 00:36:16 0° 194° (SSW) 3,126 9.2 7.3°
